Location: Newark
(48.3983°N, 16.0611°E)
Time: 00:29:44
(UTC+00:00)

ISS - Pass Details

Date: 29 January 2020
Orbit: 415 x 423 km, 51.6° (Epoch: 25 February)

Event Time Altitude Azimuth Distance (km) Brightness Sun altitude
Rises 16:37:07 0° 265° (W) 2,378 2.0 -8.2°
Reaches altitude 10° 16:39:15 10° 270° (W) 1,513 0.5 -8.6°
Maximum altitude 16:42:35 54° 349° (N) 520 -3.3 -9.1°
Enters shadow 16:45:24 14° 66° (ENE) 1,304 -1.9 -9.5°
